When you browse on this site, cookies collect data to enhance your experience and personalize the content and advertising you see.
Visit our Privacy Policy to learn more. By continuing to use the site, you agree to this use of cookies and data.
  • In Sweden
  • List of Countries
  • For 7 days
  • Water Temperature
  • Weather Map
  • Weather Widgets
  • user-avatar
    Login

    Hourly Weather Baños

    Today, 28 May, Thursday

    Time Temperature Precipitation Wind Pressure Humidity
    00:00 +8°C° 0 mm 1 mps 520 mmHg 96%
    01:00 +8°C° 0 mm 1 mps 520 mmHg 95%
    02:00 +8°C° 0 mm 1 mps 519 mmHg 95%
    03:00 +7°C° 0 mm 1 mps 519 mmHg 95%
    04:00 +7°C° 0 mm 1 mps 519 mmHg 95%
    05:00 +8°C° 0 mm 1 mps 519 mmHg 94%
    06:00 +8°C° 0 mm 1 mps 520 mmHg 94%
    07:00 +9°C° 0 mm 1 mps 520 mmHg 93%
    08:00 +10°C° 0 mm 1 mps 522 mmHg 86%
    09:00 +12°C° 0 mm 1 mps 523 mmHg 78%
    10:00 +14°C° 0 mm 1 mps 524 mmHg 71%
    11:00 +15°C° 0.2 mm 2 mps 524 mmHg 68%
    12:00 +16°C° 0.2 mm 2 mps 524 mmHg 66%
    13:00 +17°C° 0.2 mm 2 mps 524 mmHg 63%
    14:00 +16°C° 0.6 mm 2 mps 523 mmHg 69%
    15:00 +15°C° 0.6 mm 2 mps 522 mmHg 75%
    16:00 +14°C° 0.6 mm 1 mps 522 mmHg 81%
    17:00 +13°C° 0.4 mm 1 mps 521 mmHg 86%
    18:00 +12°C° 0.4 mm 1 mps 521 mmHg 91%
    19:00 +11°C° 0.4 mm 1 mps 521 mmHg 96%
    20:00 +10°C° 0.1 mm 1 mps 521 mmHg 95%
    21:00 +10°C° 0.1 mm 1 mps 521 mmHg 95%
    22:00 +10°C° 0.1 mm 1 mps 522 mmHg 94%
    23:00 +10°C° 0 mm 1 mps 521 mmHg 94%

    Tomorrow, 29 May, Friday

    Time Temperature Precipitation Wind Pressure Humidity
    00:00 +9°C° 0 mm 1 mps 521 mmHg 94%
    01:00 +9°C° 0 mm 1 mps 521 mmHg 94%
    02:00 +9°C° 0 mm 1 mps 520 mmHg 93%
    03:00 +9°C° 0 mm 1 mps 520 mmHg 92%
    04:00 +8°C° 0 mm 0 mps 520 mmHg 92%
    05:00 +8°C° 0 mm 0 mps 520 mmHg 91%
    06:00 +8°C° 0 mm 0 mps 520 mmHg 90%
    07:00 +8°C° 0 mm 0 mps 520 mmHg 90%
    08:00 +11°C° 0 mm 1 mps 522 mmHg 84%
    09:00 +13°C° 0 mm 1 mps 523 mmHg 79%
    10:00 +14°C° 0 mm 2 mps 524 mmHg 73%
    11:00 +15°C° 0.6 mm 2 mps 524 mmHg 75%
    12:00 +15°C° 0.6 mm 2 mps 523 mmHg 76%
    13:00 +15°C° 0.6 mm 2 mps 523 mmHg 78%
    14:00 +15°C° 0.9 mm 2 mps 522 mmHg 81%
    15:00 +14°C° 0.9 mm 1 mps 522 mmHg 84%
    16:00 +13°C° 0.9 mm 1 mps 521 mmHg 87%
    17:00 +13°C° 0.5 mm 1 mps 521 mmHg 90%
    18:00 +12°C° 0.5 mm 1 mps 521 mmHg 92%
    19:00 +11°C° 0.5 mm 1 mps 520 mmHg 95%
    20:00 +11°C° 0.2 mm 1 mps 521 mmHg 95%
    21:00 +10°C° 0.2 mm 1 mps 521 mmHg 95%
    22:00 +9°C° 0.2 mm 0 mps 521 mmHg 95%
    23:00 +9°C° 0 mm 0 mps 521 mmHg 95%

    Day after tomorrow, 30 May, Saturday

    Time Temperature Precipitation Wind Pressure Humidity
    00:00 +9°C° 0 mm 0 mps 521 mmHg 96%
    01:00 +9°C° 0 mm 0 mps 521 mmHg 96%
    02:00 +9°C° 0 mm 0 mps 520 mmHg 95%
    03:00 +8°C° 0 mm 0 mps 520 mmHg 95%
    04:00 +8°C° 0 mm 0 mps 520 mmHg 95%
    05:00 +9°C° 0.2 mm 1 mps 520 mmHg 95%
    06:00 +9°C° 0.2 mm 1 mps 520 mmHg 95%
    07:00 +9°C° 0.2 mm 1 mps 520 mmHg 95%
    08:00 +10°C° 0.3 mm 1 mps 521 mmHg 95%
    09:00 +10°C° 0.3 mm 1 mps 521 mmHg 94%
    10:00 +11°C° 0.3 mm 1 mps 521 mmHg 94%
    11:00 +12°C° 0.3 mm 1 mps 522 mmHg 88%
    12:00 +13°C° 0.3 mm 1 mps 522 mmHg 83%
    13:00 +15°C° 0.3 mm 1 mps 523 mmHg 78%
    14:00 +14°C° 0.8 mm 1 mps 522 mmHg 81%
    15:00 +14°C° 0.8 mm 1 mps 522 mmHg 84%
    16:00 +13°C° 0.8 mm 2 mps 521 mmHg 87%
    17:00 +13°C° 0.8 mm 1 mps 521 mmHg 90%
    18:00 +12°C° 0.8 mm 1 mps 521 mmHg 92%
    19:00 +11°C° 0.8 mm 1 mps 521 mmHg 95%
    20:00 +11°C° 0.3 mm 1 mps 521 mmHg 95%
    21:00 +10°C° 0.3 mm 1 mps 521 mmHg 96%
    22:00 +10°C° 0.3 mm 1 mps 521 mmHg 96%
    23:00 +10°C° 0.1 mm 1 mps 521 mmHg 96%

    31 May, Sunday

    Time Temperature Precipitation Wind Pressure Humidity
    00:00 +9°C° 0.1 mm 0 mps 521 mmHg 96%
    01:00 +9°C° 0.1 mm 0 mps 521 mmHg 96%
    02:00 +9°C° 0.1 mm 0 mps 521 mmHg 96%
    03:00 +8°C° 0.1 mm 0 mps 520 mmHg 96%
    04:00 +8°C° 0.1 mm 0 mps 520 mmHg 97%
    05:00 +8°C° 0.1 mm 0 mps 520 mmHg 96%
    06:00 +8°C° 0.1 mm 0 mps 520 mmHg 95%
    07:00 +9°C° 0.1 mm 0 mps 521 mmHg 95%
    08:00 +11°C° 0.1 mm 1 mps 522 mmHg 92%
    09:00 +12°C° 0.1 mm 1 mps 523 mmHg 89%
    10:00 +13°C° 0.1 mm 1 mps 524 mmHg 85%
    11:00 +13°C° 0.7 mm 2 mps 523 mmHg 85%
    12:00 +14°C° 0.7 mm 2 mps 523 mmHg 84%
    13:00 +14°C° 0.7 mm 2 mps 523 mmHg 83%
    14:00 +14°C° 1 mm 2 mps 523 mmHg 84%
    15:00 +14°C° 1 mm 1 mps 522 mmHg 85%
    16:00 +14°C° 1 mm 1 mps 521 mmHg 86%
    17:00 +13°C° 0.4 mm 1 mps 521 mmHg 89%
    18:00 +12°C° 0.4 mm 1 mps 521 mmHg 92%
    19:00 +11°C° 0.4 mm 1 mps 520 mmHg 95%
    20:00 +10°C° 0.1 mm 1 mps 521 mmHg 95%
    21:00 +10°C° 0.1 mm 1 mps 521 mmHg 95%
    22:00 +10°C° 0.1 mm 1 mps 521 mmHg 95%
    23:00 +10°C° 0 mm 1 mps 521 mmHg 95%

    1 June, Monday

    Time Temperature Precipitation Wind Pressure Humidity
    00:00 +10°C° 0 mm 1 mps 521 mmHg 96%
    01:00 +9°C° 0 mm 1 mps 520 mmHg 96%
    02:00 +9°C° 0 mm 1 mps 520 mmHg 96%
    03:00 +10°C° 0 mm 1 mps 520 mmHg 96%
    04:00 +10°C° 0 mm 1 mps 520 mmHg 96%
    05:00 +10°C° 0.1 mm 1 mps 520 mmHg 96%
    06:00 +10°C° 0.1 mm 1 mps 521 mmHg 96%
    07:00 +10°C° 0.1 mm 1 mps 521 mmHg 96%
    08:00 +10°C° 0.1 mm 1 mps 521 mmHg 95%
    09:00 +11°C° 0.1 mm 1 mps 522 mmHg 94%
    10:00 +11°C° 0.1 mm 1 mps 522 mmHg 93%
    11:00 +12°C° 0.4 mm 1 mps 523 mmHg 88%
    12:00 +14°C° 0.4 mm 2 mps 523 mmHg 83%
    13:00 +15°C° 0.4 mm 2 mps 523 mmHg 78%
    14:00 +15°C° 0.7 mm 2 mps 523 mmHg 81%
    15:00 +14°C° 0.7 mm 2 mps 522 mmHg 84%
    16:00 +14°C° 0.7 mm 1 mps 521 mmHg 87%
    17:00 +13°C° 0.4 mm 1 mps 521 mmHg 89%
    18:00 +12°C° 0.4 mm 1 mps 521 mmHg 92%
    19:00 +11°C° 0.4 mm 1 mps 520 mmHg 95%
    20:00 +11°C° 0.1 mm 1 mps 521 mmHg 95%
    21:00 +10°C° 0.1 mm 1 mps 521 mmHg 95%
    22:00 +10°C° 0.1 mm 1 mps 522 mmHg 95%
    23:00 +10°C° 0.1 mm 1 mps 521 mmHg 95%

    2 June, Tuesday

    Time Temperature Precipitation Wind Pressure Humidity
    00:00 +10°C° 0.1 mm 1 mps 521 mmHg 96%
    01:00 +10°C° 0.1 mm 1 mps 521 mmHg 96%
    02:00 +10°C° 0 mm 1 mps 521 mmHg 96%
    03:00 +9°C° 0 mm 0 mps 520 mmHg 96%
    04:00 +9°C° 0 mm 0 mps 520 mmHg 96%
    05:00 +9°C° 0 mm 0 mps 520 mmHg 95%
    06:00 +10°C° 0 mm 1 mps 520 mmHg 95%
    07:00 +10°C° 0 mm 1 mps 521 mmHg 95%
    08:00 +11°C° 0.1 mm 1 mps 522 mmHg 90%
    09:00 +12°C° 0.1 mm 1 mps 523 mmHg 85%
    10:00 +14°C° 0.1 mm 1 mps 524 mmHg 80%
    11:00 +14°C° 0.4 mm 1 mps 523 mmHg 80%
    12:00 +14°C° 0.4 mm 1 mps 523 mmHg 80%
    13:00 +14°C° 0.4 mm 1 mps 522 mmHg 81%
    14:00 +14°C° 0.8 mm 1 mps 522 mmHg 83%
    15:00 +14°C° 0.8 mm 1 mps 521 mmHg 84%
    16:00 +14°C° 0.8 mm 1 mps 521 mmHg 86%
    17:00 +13°C° 0.8 mm 1 mps 521 mmHg 89%
    18:00 +12°C° 0.8 mm 1 mps 520 mmHg 93%
    19:00 +11°C° 0.8 mm 1 mps 520 mmHg 96%
    20:00 +11°C° 0.1 mm 1 mps 520 mmHg 96%
    21:00 +11°C° 0.1 mm 1 mps 521 mmHg 95%
    22:00 +9°C° 0.1 mm 0 mps 521 mmHg 95%
    23:00 +9°C° 0.1 mm 0 mps 521 mmHg 95%
    Show more